Surface/Precipitation History
04/26/2017 08:56  to  4/27/2017 08:56
Change End Date:
Date/Time
(MDT)
Sf
Temp Chem Water Layer Surface Precipitation
Sfc Pvt Sub Frz Factor Pct Dpth DpthThk IcePct Cond Salin FI Type Intens Accum Rate
04/27/2017 08:45 Wet 36.1F - 43F 32F 90 0% 0.00 in - 0% 1 mhos 92 - None None 0.26 in 0.0 iph
04/27/2017 08:37 Wet 36.0F - 43F 32F 95 0% 0.00 in - 0% 1 mhos 108 - Yes Slight 0.26 in 0.0 iph
04/27/2017 08:30 Wet 36.1F - 43F 32F 95 0% 0.00 in - 0% 1 mhos 83 - Yes Slight 0.26 in 0.0 iph
04/27/2017 08:27 Wet 36.1F - 43F 32F 95 0% 0.00 in - 0% 1 mhos 97 - Yes Slight 0.26 in 0.0 iph
04/27/2017 08:17 Wet 35.8F - 43F 32F 95 1% 0.00 in - 0% 1 mhos 142 - Yes Slight 0.26 in 0.0 iph
04/27/2017 08:15 Wet 35.8F - 43F 32F 95 1% 0.00 in - 0% 1 mhos 142 - None None 0.26 in 0.0 iph
04/27/2017 08:07 Wet 35.6F - 43F 32F 95 1% 0.00 in - 0% 2 mhos 202 - Yes Slight 0.26 in 0.0 iph
04/27/2017 08:00 Wet 35.4F - 43F 32F 95 1% 0.00 in - 0% 1 mhos 152 - Yes Slight 0.26 in 0.0 iph
04/27/2017 07:57 Wet 35.6F - 43F 32F 95 0% 0.00 in - 0% 1 mhos 124 - None None 0.26 in 0.0 iph
04/27/2017 07:47 Wet 35.4F - 43F 32F 90 1% 0.00 in - 0% 1 mhos 141 - None None 0.26 in 0.0 iph
04/27/2017 07:45 Wet 35.4F - 43F 32F 95 0% 0.00 in - 0% 1 mhos 108 - None None 0.26 in 0.0 iph
04/27/2017 07:37 Wet 35.2F - 43F 32F 95 1% 0.00 in - 0% 1 mhos 152 - Yes Slight 0.27 in 0.0 iph
04/27/2017 07:30 Wet 34.7F - 43F 32F 95 0% 0.00 in - 0% 1 mhos 98 - Yes Slight 0.27 in 0.0 iph
04/27/2017 07:27 Wet 35.1F - 43F 32F 95 0% 0.00 in - 0% 1 mhos 82 - Yes Slight 0.27 in 0.0 iph
04/27/2017 07:17 Wet 34.5F - 43F 32F 95 1% 0.00 in - 0% 1 mhos 135 - Yes Slight 0.27 in 0.0 iph
Date/Time
(MDT)
Sf
Temp Chem Water Layer Surface Precipitation
Sfc Pvt Sub Frz Factor Pct Dpth DpthThk IcePct Cond Salin FI Type Intens Accum Rate
04/27/2017 07:15 Wet 34.5F - 43F 32F 95 1% 0.00 in - 0% 1 mhos 152 - Yes Slight 0.27 in 0.0 iph
04/27/2017 07:07 Wet 34.5F - 43F 32F 95 0% 0.00 in - 0% 1 mhos 129 - Yes Slight 0.27 in 0.0 iph
04/27/2017 07:00 Wet 34.3F - 43F 32F 95 1% 0.00 in - 0% 1 mhos 138 - Yes Slight 0.27 in 0.0 iph
04/27/2017 06:57 Wet 34.2F - 44F 32F 95 1% 0.00 in - 0% 2 mhos 253 - Yes Slight 0.27 in 0.0 iph
04/27/2017 06:47 Wet 34.2F - 44F 32F 95 1% 0.00 in - 0% 1 mhos 131 - Snow Slight 0.27 in 0.0 iph
04/27/2017 06:45 Wet 34.2F - 44F 32F 95 0% 0.00 in - 0% 1 mhos 123 - Snow Slight 0.27 in 0.0 iph
04/27/2017 06:37 Wet 34.0F - 44F 32F 95 1% 0.00 in - 0% 3 mhos 359 - Snow Slight 0.27 in 0.0 iph
04/27/2017 06:30 Wet 34.0F - 44F 32F 95 1% 0.00 in - 0% 2 mhos 160 - Snow Slight 0.27 in 0.0 iph
04/27/2017 06:27 Wet 34.2F - 44F 32F 95 1% 0.00 in - 0% 2 mhos 220 - Snow Slight 0.27 in 0.0 iph
04/27/2017 06:16 Wet 34.0F - 44F 32F 95 0% 0.00 in - 0% 1 mhos 126 - Yes Slight 0.27 in 0.0 iph
04/27/2017 06:15 Wet 34.0F - 44F 32F 95 0% 0.00 in - 0% 1 mhos 94 - Yes Slight 0.27 in 0.0 iph
04/27/2017 06:06 Wet 34.2F - 44F 32F 95 0% 0.00 in - 0% 1 mhos 80 - Yes Slight 0.27 in 0.0 iph
04/27/2017 06:00 Wet 34.0F - 44F 32F 35 0% 0.00 in - 0% 0 mhos 20 - Yes Slight 0.28 in 0.0 iph
04/27/2017 05:56 Wet 34.0F - 44F 32F 5 0% 0.00 in - 0% 0 mhos 3 - Yes Slight 0.28 in 0.0 iph
04/27/2017 05:46 Wet 34.3F - 44F 32F 5 0% 0.10 in - 0% 0 mhos 2 - None None 0.28 in 0.0 iph
Date/Time
(MDT)
Sf
Temp Chem Water Layer Surface Precipitation
Sfc Pvt Sub Frz Factor Pct Dpth DpthThk IcePct Cond Salin FI Type Intens Accum Rate
04/27/2017 05:45 Wet 34.0F - 44F 32F 5 0% 0.00 in - 0% 0 mhos 2 - Yes Slight 0.28 in 0.0 iph
04/27/2017 05:36 Wet 33.8F - 44F 32F 5 0% 0.00 in - 0% 0 mhos 3 - Yes Slight 0.29 in 0.0 iph
04/27/2017 05:30 Wet 34.0F - 44F 32F 5 0% 0.10 in - 0% 0 mhos 3 - Yes Slight 0.30 in 0.0 iph
04/27/2017 05:26 Wet 33.6F - 44F 32F 5 0% 0.00 in - 0% 0 mhos 3 - Yes Moderate 0.30 in 0.0 iph
04/27/2017 05:16 Wet 33.8F - 44F 32F 5 0% 0.00 in - 0% 0 mhos 6 - Yes Slight 0.30 in 0.0 iph
04/27/2017 05:15 Wet 33.8F - 44F 32F 5 0% 0.00 in - 0% 0 mhos 6 - Yes Slight 0.30 in 0.0 iph
04/27/2017 05:06 Wet 33.8F - 44F 32F 5 0% 0.00 in - 0% 0 mhos 6 - Snow Slight 0.31 in 0.0 iph
04/27/2017 05:00 Wet 33.6F - 44F 32F 5 0% 0.00 in - 0% 0 mhos 4 - Yes Moderate 0.31 in 0.0 iph
04/27/2017 04:56 Wet 34.0F - 44F 32F 5 0% 0.00 in - 0% 0 mhos 2 - Yes Slight 0.31 in 0.0 iph
04/27/2017 04:46 Wet 33.8F - 44F 32F 5 0% 0.00 in - 0% 0 mhos 6 - Yes Slight 0.31 in 0.0 iph
04/27/2017 04:45 Wet 33.8F - 44F 32F 5 0% 0.00 in - 0% 0 mhos 6 - Yes Slight 0.31 in 0.0 iph
04/27/2017 04:36 Wet 34.2F - 44F 32F 5 0% 0.10 in - 0% 0 mhos 2 - None None 0.32 in 0.0 iph
04/27/2017 04:30 Wet 33.6F - 44F 32F 5 0% 0.10 in - 0% 0 mhos 2 - None None 0.32 in 0.0 iph
04/27/2017 04:26 Wet 33.6F - 44F 32F 5 0% 0.00 in - 0% 0 mhos 5 - None None 0.32 in 0.0 iph
04/27/2017 04:16 Wet 33.4F - 44F 32F 5 0% 0.00 in - 0% 0 mhos 5 - None None 0.33 in 0.0 iph
Date/Time
(MDT)
Sf
Temp Chem Water Layer Surface Precipitation
Sfc Pvt Sub Frz Factor Pct Dpth DpthThk IcePct Cond Salin FI Type Intens Accum Rate
04/27/2017 04:15 Wet 33.4F - 44F 32F 5 0% 0.00 in - 0% 0 mhos 5 - None None 0.33 in 0.0 iph
04/27/2017 04:06 Wet 32.9F - 44F 32F 10 0% 0.00 in - 0% 0 mhos 5 - Snow Slight 0.33 in 0.0 iph
04/27/2017 04:00 Wet 32.5F - 44F 32F 5 0% 0.10 in - 0% 0 mhos 3 - Snow Slight 0.33 in 0.0 iph
04/27/2017 03:56 Wet 32.5F - 44F 32F 10 0% 0.10 in - 0% 0 mhos 3 - Snow Slight 0.33 in 0.0 iph
04/27/2017 03:46 Wet 32.9F - 44F 32F 5 0% 0.00 in - 0% 0 mhos 4 - Yes Slight 0.33 in 0.0 iph
04/27/2017 03:45 Wet 32.7F - 44F 32F 5 0% 0.00 in - 0% 0 mhos 4 - Yes Slight 0.33 in 0.0 iph
04/27/2017 03:36 Wet 33.4F - 44F 32F 5 0% 0.00 in - 0% 0 mhos 5 - Yes Moderate 0.34 in 0.0 iph
04/27/2017 03:30 Wet 32.7F - 44F 32F 10 0% 0.00 in - 0% 0 mhos 5 - Yes Slight 0.34 in 0.0 iph
04/27/2017 03:25 Wet 32.7F - 44F 32F 10 0% 0.00 in - 0% 0 mhos 4 - Yes Moderate 0.34 in 0.0 iph
04/27/2017 03:15 Wet 32.5F - 44F 32F 5 0% 0.00 in - 0% 0 mhos 4 - Yes Slight 0.34 in 0.0 iph
04/27/2017 03:15 Wet 32.5F - 44F 32F 5 0% 0.00 in - 0% 0 mhos 4 - Yes Slight 0.34 in 0.0 iph
04/27/2017 03:05 Wet 32.5F - 44F 32F 10 0% 0.10 in - 0% 0 mhos 3 - None None 0.34 in 0.0 iph
04/27/2017 03:00 Wet 32.5F - 44F 32F 20 0% 0.10 in - 0% 0 mhos 2 - None None 0.34 in 0.0 iph
04/27/2017 02:55 Wet 32.5F - 44F 32F 10 0% 0.10 in - 0% 0 mhos 2 - None None 0.34 in 0.0 iph
04/27/2017 02:45 Wet 32.5F - 44F 32F 15 0% 0.20 in - 0% 0 mhos 2 - None None 0.34 in 0.0 iph
Date/Time
(MDT)
Sf
Temp Chem Water Layer Surface Precipitation
Sfc Pvt Sub Frz Factor Pct Dpth DpthThk IcePct Cond Salin FI Type Intens Accum Rate
04/27/2017 02:45 Wet 32.5F - 44F 32F 15 0% 0.20 in - 0% 0 mhos 2 - None None 0.34 in 0.0 iph
04/27/2017 02:35 Wet 32.5F - 44F 32F 10 0% 0.10 in - 0% 0 mhos 2 - None None 0.34 in 0.0 iph
04/27/2017 02:30 Wet 32.5F - 44F 32F 10 0% 0.10 in - 0% 0 mhos 2 - None None 0.35 in 0.0 iph
04/27/2017 02:25 Wet 32.5F - 44F 32F 5 0% 0.10 in - 0% 0 mhos 3 - None None 0.35 in 0.0 iph
04/27/2017 02:15 Wet 32.5F - 44F 32F 5 0% 0.10 in - 0% 0 mhos 2 - None None 0.35 in 0.0 iph
04/27/2017 02:15 Wet 32.5F - 44F 32F 5 0% 0.10 in - 0% 0 mhos 2 - None None 0.35 in 0.0 iph
04/27/2017 02:05 Wet 32.5F - 44F 32F 5 0% 0.10 in - 0% 0 mhos 2 - None None 0.35 in 0.0 iph
04/27/2017 02:00 Wet 32.7F - 44F 32F 5 0% 0.10 in - 0% 0 mhos 3 - None None 0.35 in 0.0 iph
04/27/2017 01:55 Wet 32.7F - 44F 32F 5 0% 0.10 in - 0% 0 mhos 2 - Snow Slight 0.35 in 0.0 iph
04/27/2017 01:45 Wet 32.7F - 44F 32F 5 0% 0.00 in - 0% 0 mhos 0 - Snow Slight 0.34 in 0.0 iph
04/27/2017 01:45 Wet 32.7F - 44F 32F 5 0% 0.00 in - 0% 0 mhos 0 - Snow Slight 0.34 in 0.0 iph
04/27/2017 01:35 Wet 32.5F - 44F 32F 5 0% 0.00 in - 0% 0 mhos 0 - Snow Slight 0.34 in 0.0 iph
04/27/2017 01:30 Wet 32.5F - 44F 32F 5 0% 0.00 in - 0% 0 mhos 0 - Snow Slight 0.34 in 0.1 iph
04/27/2017 01:25 Wet 32.7F - 44F 32F 5 0% 0.00 in - 0% 0 mhos 0 - Snow Slight 0.33 in 0.0 iph
04/27/2017 01:15 Wet 32.7F - 44F 32F 5 0% 0.00 in - 0% 0 mhos 0 - Snow Moderate 0.33 in 0.1 iph
Date/Time
(MDT)
Sf
Temp Chem Water Layer Surface Precipitation
Sfc Pvt Sub Frz Factor Pct Dpth DpthThk IcePct Cond Salin FI Type Intens Accum Rate
04/27/2017 01:15 Wet 32.5F - 44F 32F 5 0% 0.00 in - 0% 0 mhos 1 - Snow Moderate 0.33 in 0.1 iph
04/27/2017 01:05 Wet 32.7F - 44F 32F 5 0% 0.00 in - 0% 0 mhos 3 - Snow Heavy 0.29 in 0.3 iph
04/27/2017 01:00 Wet 32.7F - 45F 32F 5 0% 0.00 in - 0% 0 mhos 1 - Snow Moderate 0.28 in 0.1 iph
04/27/2017 00:54 Wet 32.7F - 44F 32F 5 0% 0.00 in - 0% 0 mhos 0 - Snow Moderate 0.27 in 0.2 iph
04/27/2017 00:45 Wet 32.7F - 44F 32F 5 0% 0.00 in - 0% 0 mhos 0 - Snow Slight 0.23 in 0.1 iph
04/27/2017 00:44 Wet 32.9F - 45F 32F 5 0% 0.00 in - 0% 0 mhos 1 - Snow Slight 0.23 in 0.1 iph
04/27/2017 00:34 Wet 34.9F - 44F 32F 5 0% 0.00 in - 0% 0 mhos 1 - Snow Slight 0.22 in 0.0 iph
04/27/2017 00:30 Wet 33.1F - 44F 32F 5 0% 0.10 in - 0% 0 mhos 3 - Snow Moderate 0.21 in 0.1 iph
04/27/2017 00:24 Wet 33.1F - 45F 32F 5 0% 0.10 in - 0% 0 mhos 2 - Snow Slight 0.20 in 0.0 iph
04/27/2017 00:15 Wet 34.7F - 44F 32F 5 0% 0.10 in - 0% 0 mhos 3 - Snow Slight 0.19 in 0.0 iph
04/27/2017 00:14 Wet 34.5F - 45F 32F 5 0% 0.00 in - 0% 0 mhos 3 - Snow Slight 0.19 in 0.0 iph
04/27/2017 00:04 Wet 35.6F - 45F 32F 5 0% 0.00 in - 0% 0 mhos 1 - Snow Slight 0.18 in 0.0 iph
04/27/2017 00:00 Wet 34.7F - 45F 32F 5 0% 0.00 in - 0% 0 mhos 3 - Snow Slight 0.18 in 0.0 iph
04/26/2017 23:54 Wet 35.2F - 45F 32F 5 0% 0.00 in - 0% 0 mhos 4 - Snow Slight 0.18 in 0.1 iph
04/26/2017 23:45 Wet 35.8F - 45F 32F 5 0% 0.10 in - 0% 0 mhos 3 - Yes Moderate 0.17 in 0.0 iph
Date/Time
(MDT)
Sf
Temp Chem Water Layer Surface Precipitation
Sfc Pvt Sub Frz Factor Pct Dpth DpthThk IcePct Cond Salin FI Type Intens Accum Rate
04/26/2017 23:44 Wet 35.6F - 45F 32F 5 0% 0.00 in - 0% 0 mhos 3 - Yes Moderate 0.17 in 0.0 iph
04/26/2017 23:34 Wet 33.8F - 45F 32F 5 0% 0.10 in - 0% 0 mhos 3 - Snow Slight 0.17 in 0.1 iph
04/26/2017 23:30 Wet 35.2F - 45F 32F 5 0% 0.00 in - 0% 0 mhos 4 - Snow Slight 0.16 in 0.1 iph
04/26/2017 23:24 Wet 36.9F - 45F 32F 5 0% 0.00 in - 0% 0 mhos 5 - Snow Slight 0.15 in 0.0 iph
04/26/2017 23:15 Wet 36.9F - 45F 32F 10 0% 0.00 in - 0% 0 mhos 7 - Snow Slight 0.15 in 0.0 iph
04/26/2017 23:14 Wet 37.4F - 45F 32F 10 0% 0.00 in - 0% 0 mhos 7 - Snow Slight 0.15 in 0.0 iph
04/26/2017 23:04 Wet 38.3F - 45F 32F 5 0% 0.10 in - 0% 0 mhos 2 - Snow Slight 0.15 in 0.0 iph
04/26/2017 23:00 Wet 38.5F - 45F 32F 5 0% 0.10 in - 0% 0 mhos 2 - Snow Slight 0.15 in 0.0 iph
04/26/2017 22:54 Wet 38.8F - 45F 32F 5 0% 0.00 in - 0% 0 mhos 3 - Snow Slight 0.15 in 0.0 iph
04/26/2017 22:45 Wet 38.7F - 45F 32F 10 0% 0.00 in - 0% 0 mhos 10 - Snow Slight 0.15 in 0.0 iph
04/26/2017 22:44 Wet 38.7F - 44F 32F 10 0% 0.00 in - 0% 0 mhos 10 - Snow Slight 0.15 in 0.0 iph
04/26/2017 22:34 Wet 39.0F - 44F 32F 5 0% 0.00 in - 0% 0 mhos 3 - Yes Moderate 0.15 in 0.0 iph
04/26/2017 22:30 Wet 38.8F - 44F 32F 10 0% 0.10 in - 0% 0 mhos 2 - Snow Slight 0.15 in 0.0 iph
04/26/2017 22:24 Wet 38.5F - 44F 32F 15 0% 0.00 in - 0% 0 mhos 11 - Snow Slight 0.14 in 0.0 iph
04/26/2017 22:15 Wet 38.1F - 44F 32F 5 0% 0.00 in - 0% 0 mhos 7 - Snow Slight 0.14 in 0.1 iph
Date/Time
(MDT)
Sf
Temp Chem Water Layer Surface Precipitation
Sfc Pvt Sub Frz Factor Pct Dpth DpthThk IcePct Cond Salin FI Type Intens Accum Rate
04/26/2017 22:14 Wet 38.1F - 45F 32F 5 0% 0.00 in - 0% 0 mhos 10 - Snow Slight 0.14 in 0.0 iph
04/26/2017 22:04 Wet 39.4F - 44F 32F 10 0% 0.00 in - 0% 0 mhos 7 - Snow Slight 0.13 in 0.0 iph
04/26/2017 22:00 Wet 39.2F - 44F 32F 10 0% 0.00 in - 0% 0 mhos 6 - Snow Slight 0.13 in 0.0 iph
04/26/2017 21:54 Wet 39.6F - 44F 32F 5 0% 0.00 in - 0% 0 mhos 6 - Snow Slight 0.13 in 0.0 iph
04/26/2017 21:45 Wet 39.6F - 44F 32F 10 0% 0.00 in - 0% 0 mhos 10 - Yes Slight 0.13 in 0.0 iph
04/26/2017 21:44 Wet 39.7F - 44F 32F 10 0% 0.00 in - 0% 0 mhos 9 - None None 0.13 in 0.0 iph
04/26/2017 21:34 Wet 39.7F - 44F 32F 10 0% 0.00 in - 0% 0 mhos 11 - Yes Moderate 0.13 in 0.0 iph
04/26/2017 21:30 Wet 39.7F - 44F 32F 15 0% 0.00 in - 0% 0 mhos 7 - Snow Slight 0.13 in 0.0 iph
04/26/2017 21:23 Wet 39.4F - 44F 32F 15 0% 0.00 in - 0% 0 mhos 9 - Snow Slight 0.13 in 0.0 iph
04/26/2017 21:15 Wet 39.2F - 44F 32F 15 0% 0.00 in - 0% 0 mhos 7 - Snow Slight 0.13 in 0.0 iph
04/26/2017 21:13 Wet 39.2F - 44F 32F 15 0% 0.00 in - 0% 0 mhos 6 - Snow Slight 0.13 in 0.0 iph
04/26/2017 21:03 Wet 40.1F - 44F 32F 5 0% 0.00 in - 0% 0 mhos 7 - Snow Slight 0.13 in 0.0 iph
04/26/2017 21:00 Wet 40.6F - 44F 32F 10 0% 0.00 in - 0% 0 mhos 5 - Snow Slight 0.13 in 0.0 iph
04/26/2017 20:53 Wet 40.6F - 44F 32F 5 0% 0.00 in - 0% 0 mhos 8 - Yes Slight 0.13 in 0.0 iph
04/26/2017 20:45 Wet 41.0F - 44F 32F 10 0% 0.00 in - 0% 0 mhos 6 - None None 0.13 in 0.0 iph
Date/Time
(MDT)
Sf
Temp Chem Water Layer Surface Precipitation
Sfc Pvt Sub Frz Factor Pct Dpth DpthThk IcePct Cond Salin FI Type Intens Accum Rate
04/26/2017 20:43 Wet 40.6F - 44F 32F 5 0% 0.00 in - 0% 0 mhos 7 - None None 0.13 in 0.0 iph
04/26/2017 20:33 Wet 41.4F - 44F 32F 10 0% 0.00 in - 0% 0 mhos 4 - None None 0.13 in 0.0 iph
04/26/2017 20:30 Wet 41.5F - 44F 32F 10 0% 0.00 in - 0% 0 mhos 6 - Snow Slight 0.13 in 0.0 iph
04/26/2017 20:23 Wet 41.4F - 44F 32F 15 0% 0.00 in - 0% 0 mhos 5 - Snow Slight 0.13 in 0.0 iph
04/26/2017 20:15 Wet 41.7F - 44F 32F 10 0% 0.00 in - 0% 0 mhos 5 - Snow Slight 0.12 in 0.0 iph
04/26/2017 20:13 Wet 41.5F - 44F 32F 10 0% 0.00 in - 0% 0 mhos 19 - Snow Slight 0.12 in 0.0 iph
04/26/2017 20:03 Wet 41.4F - 44F 32F 20 0% 0.00 in - 0% 0 mhos 6 - Snow Slight 0.12 in 0.0 iph
04/26/2017 20:00 Wet 41.2F - 44F 32F 5 0% 0.00 in - 0% 0 mhos 5 - Snow Slight 0.12 in 0.0 iph
04/26/2017 19:53 Wet 41.9F - 44F 32F 15 0% 0.00 in - 0% 0 mhos 8 - Snow Slight 0.12 in 0.0 iph
04/26/2017 19:45 Wet 42.3F - 44F 32F 5 0% 0.00 in - 0% 0 mhos 9 - Snow Slight 0.12 in 0.0 iph
04/26/2017 19:43 Wet 42.4F - 44F 32F 10 0% 0.00 in - 0% 0 mhos 8 - Snow Slight 0.12 in 0.0 iph
04/26/2017 19:33 Wet 44.6F - 44F 32F 15 0% 0.00 in - 0% 0 mhos 7 - Snow Slight 0.12 in 0.0 iph
04/26/2017 19:30 Wet 44.6F - 44F 32F 15 0% 0.00 in - 0% 0 mhos 6 - None None 0.12 in 0.0 iph
04/26/2017 19:23 Wet 43.3F - 44F 32F 5 0% 0.00 in - 0% 0 mhos 6 - Snow Slight 0.12 in 0.0 iph
04/26/2017 19:15 Wet 43.2F - 44F 32F 10 0% 0.00 in - 0% 0 mhos 6 - Snow Slight 0.12 in 0.0 iph
Date/Time
(MDT)
Sf
Temp Chem Water Layer Surface Precipitation
Sfc Pvt Sub Frz Factor Pct Dpth DpthThk IcePct Cond Salin FI Type Intens Accum Rate
04/26/2017 19:13 Wet 42.6F - 44F 32F 5 0% 0.00 in - 0% 0 mhos 5 - Snow Slight 0.11 in 0.0 iph
04/26/2017 19:03 Wet 44.4F - 44F 32F 5 0% 0.00 in - 0% 0 mhos 7 - Snow Slight 0.11 in 0.0 iph
04/26/2017 19:00 Wet 45.1F - 44F 32F 5 0% 0.00 in - 0% 0 mhos 5 - Snow Slight 0.11 in 0.0 iph
04/26/2017 18:53 Wet 47.7F - 44F 32F 5 0% 0.00 in - 0% 0 mhos 0 - Yes Moderate 0.11 in 0.0 iph
04/26/2017 18:45 Dry 50.0F - 44F - - - - - - 0 mhos 0 - Yes Moderate 0.11 in 0.0 iph
04/26/2017 18:43 Dry 50.9F - 44F - - - - - - 0 mhos 0 - Yes Slight 0.11 in 0.0 iph
04/26/2017 18:33 Dry 51.4F - 44F - - - - - - 0 mhos 0 - Yes Slight 0.11 in 0.0 iph
04/26/2017 18:30 Dry 51.3F - 44F - - - - - - 0 mhos 0 - None None 0.11 in 0.0 iph
04/26/2017 18:22 Dry 51.4F - 44F - - - - - - 0 mhos 0 - None None 0.11 in 0.0 iph
04/26/2017 18:15 Dry 52.3F - 44F - - - - - - 0 mhos 0 - None None 0.11 in 0.0 iph
04/26/2017 18:12 Dry 52.9F - 44F - - - - - - 0 mhos 0 - None None 0.11 in 0.0 iph
04/26/2017 18:02 Dry 53.2F - 44F - - - - - - 0 mhos 0 - None None 0.11 in 0.0 iph
04/26/2017 18:00 Dry 53.1F - 44F - - - - - - 0 mhos 0 - None None 0.11 in 0.0 iph
04/26/2017 17:52 Dry 52.7F - 44F - - - - - - 0 mhos 0 - None None 0.11 in 0.0 iph
04/26/2017 17:45 Dry 51.8F - 44F - - - - - - 0 mhos 0 - Snow Slight 0.11 in 0.0 iph
Date/Time
(MDT)
Sf
Temp Chem Water Layer Surface Precipitation
Sfc Pvt Sub Frz Factor Pct Dpth DpthThk IcePct Cond Salin FI Type Intens Accum Rate
04/26/2017 17:42 Dry 51.3F - 44F - - - - - - 0 mhos 0 - Snow Slight 0.11 in 0.0 iph
04/26/2017 17:32 Dry 50.4F - 44F - - - - - - 0 mhos 0 - Yes Slight 0.11 in 0.0 iph
04/26/2017 17:30 Dry 49.8F - 44F - - - - - - 0 mhos 0 - None None 0.11 in 0.0 iph
04/26/2017 17:22 Dry 50.7F - 44F - - - - - - 0 mhos 0 - None None 0.11 in 0.0 iph
04/26/2017 17:15 Dry 51.8F - 44F - - - - - - 0 mhos 0 - None None 0.11 in 0.0 iph
04/26/2017 17:12 Dry 52.0F - 44F - - - - - - 0 mhos 0 - None None 0.11 in 0.0 iph
04/26/2017 17:02 Wet 53.1F - 44F 32F 5 0% 0.00 in - 0% 0 mhos 0 - Yes Slight 0.11 in 0.0 iph
04/26/2017 17:00 Wet 53.1F - 44F 32F 5 0% 0.00 in - 0% 0 mhos 0 - Yes Moderate 0.11 in 0.0 iph
04/26/2017 16:52 Dry 55.8F - 44F - - - - - - 0 mhos 0 - None None 0.11 in 0.0 iph
04/26/2017 16:45 Dry 56.1F - 44F - - - - - - 0 mhos 0 - None None 0.11 in 0.0 iph
04/26/2017 16:42 Dry 55.8F - 44F - - - - - - 0 mhos 0 - None None 0.11 in 0.0 iph
04/26/2017 16:32 Dry 57.7F - 44F - - - - - - 0 mhos 0 - None None 0.11 in 0.0 iph
04/26/2017 16:30 Dry 58.5F - 44F - - - - - - 0 mhos 0 - None None 0.11 in 0.0 iph
04/26/2017 16:22 Dry 58.1F - 44F - - - - - - 0 mhos 0 - None None 0.11 in 0.0 iph
04/26/2017 16:15 Dry 57.9F - 44F - - - - - - 0 mhos 0 - None None 0.11 in 0.0 iph
Date/Time
(MDT)
Sf
Temp Chem Water Layer Surface Precipitation
Sfc Pvt Sub Frz Factor Pct Dpth DpthThk IcePct Cond Salin FI Type Intens Accum Rate
04/26/2017 16:12 Dry 57.0F - 44F - - - - - - 0 mhos 0 - None None 0.11 in 0.0 iph
04/26/2017 16:02 Dry 55.6F - 44F - - - - - - 0 mhos 0 - None None 0.11 in 0.0 iph
04/26/2017 16:00 Dry 56.1F - 44F - - - - - - 0 mhos 0 - None None 0.11 in 0.0 iph
04/26/2017 15:52 Dry 58.5F - 44F - - - - - - 0 mhos 0 - None None 0.11 in 0.0 iph
04/26/2017 15:45 Dry 59.2F - 44F - - - - - - 0 mhos 0 - None None 0.11 in 0.0 iph
04/26/2017 15:42 Dry 60.4F - 44F - - - - - - 0 mhos 0 - None None 0.11 in 0.0 iph
04/26/2017 15:32 Dry 59.9F - 44F - - - - - - 0 mhos 0 - None None 0.11 in 0.0 iph
04/26/2017 15:30 Dry 60.1F - 44F - - - - - - 0 mhos 0 - None None 0.11 in 0.0 iph
04/26/2017 15:22 Dry 56.8F - 44F - - - - - - 0 mhos 1 - None None 0.11 in 0.0 iph
04/26/2017 15:15 Wet 58.1F - 44F 32F 5 0% 0.00 in - 0% 0 mhos 4 - None None 0.11 in 0.0 iph
04/26/2017 15:12 Wet 57.0F - 44F 32F 5 0% 0.00 in - 0% 0 mhos 7 - None None 0.11 in 0.0 iph
04/26/2017 15:02 Wet 55.6F - 44F 32F 5 0% 0.00 in - 0% 0 mhos 10 - None None 0.11 in 0.0 iph
04/26/2017 15:00 Wet 56.8F - 44F 32F 5 0% 0.00 in - 0% 0 mhos 10 - None None 0.11 in 0.0 iph
04/26/2017 14:52 Wet 56.3F - 44F 32F 5 0% 0.00 in - 0% 0 mhos 7 - None None 0.11 in 0.0 iph
04/26/2017 14:45 Wet 58.1F - 44F 32F 5 0% 0.00 in - 0% 0 mhos 5 - None None 0.11 in 0.0 iph
Date/Time
(MDT)
Sf
Temp Chem Water Layer Surface Precipitation
Sfc Pvt Sub Frz Factor Pct Dpth DpthThk IcePct Cond Salin FI Type Intens Accum Rate
04/26/2017 14:42 Wet 55.6F - 44F 32F 5 0% 0.00 in - 0% 0 mhos 5 - None None 0.11 in 0.0 iph
04/26/2017 14:32 Wet 52.5F - 44F 32F 5 0% 0.00 in - 0% 0 mhos 7 - None None 0.11 in 0.0 iph
04/26/2017 14:30 Wet 52.2F - 44F 32F 5 0% 0.00 in - 0% 0 mhos 6 - Yes Moderate 0.11 in 0.0 iph
04/26/2017 14:22 Wet 48.7F - 44F 32F 5 0% 0.00 in - 0% 0 mhos 5 - Yes Moderate 0.11 in 0.0 iph
04/26/2017 14:15 Wet 50.0F - 44F 32F 5 0% 0.00 in - 0% 0 mhos 4 - None None 0.11 in 0.0 iph
04/26/2017 14:12 Wet 49.6F - 44F 32F 5 0% 0.00 in - 0% 0 mhos 5 - None None 0.11 in 0.0 iph
04/26/2017 14:02 Wet 50.4F - 44F 32F 5 0% 0.00 in - 0% 0 mhos 3 - None None 0.11 in 0.0 iph
04/26/2017 14:00 Wet 49.6F - 44F 32F 5 0% 0.00 in - 0% 0 mhos 3 - None None 0.11 in 0.0 iph
04/26/2017 13:52 Wet 48.0F - 44F 32F 5 0% 0.00 in - 0% 0 mhos 3 - None None 0.11 in 0.0 iph
04/26/2017 13:45 Wet 48.4F - 44F 32F 5 0% 0.00 in - 0% 0 mhos 2 - None None 0.11 in 0.0 iph
04/26/2017 13:42 Wet 48.7F - 44F 32F 5 0% 0.00 in - 0% 0 mhos 7 - Snow Slight 0.11 in 0.0 iph
04/26/2017 13:32 Wet 45.9F - 44F 32F 15 0% 0.00 in - 0% 0 mhos 5 - Snow Slight 0.11 in 0.0 iph
04/26/2017 13:30 Wet 45.5F - 44F 32F 15 0% 0.10 in - 0% 0 mhos 2 - Snow Slight 0.11 in 0.0 iph
04/26/2017 13:22 Wet 46.6F - 44F 32F 10 0% 0.00 in - 0% 0 mhos 7 - Yes Moderate 0.11 in 0.0 iph
04/26/2017 13:15 Wet 46.6F - 44F 32F 20 0% 0.00 in - 0% 0 mhos 13 - Yes Moderate 0.12 in 0.0 iph
Date/Time
(MDT)
Sf
Temp Chem Water Layer Surface Precipitation
Sfc Pvt Sub Frz Factor Pct Dpth DpthThk IcePct Cond Salin FI Type Intens Accum Rate
04/26/2017 13:11 Wet 46.9F - 44F 32F 5 0% 0.00 in - 0% 0 mhos 4 - Yes Moderate 0.12 in 0.0 iph
04/26/2017 13:01 Wet 46.2F - 44F 32F 5 0% 0.00 in - 0% 0 mhos 13 - Yes Moderate 0.12 in 0.0 iph
04/26/2017 13:00 Wet 46.0F - 44F 32F 5 0% 0.00 in - 0% 0 mhos 4 - Yes Moderate 0.12 in 0.0 iph
04/26/2017 12:51 Wet 45.3F - 44F 32F 15 0% 0.00 in - 0% 0 mhos 6 - Snow Slight 0.12 in 0.0 iph
04/26/2017 12:45 Wet 45.1F - 44F 32F 5 0% 0.00 in - 0% 0 mhos 7 - None None 0.12 in 0.0 iph
04/26/2017 12:41 Wet 45.0F - 44F 32F 5 0% 0.00 in - 0% 0 mhos 7 - Yes Moderate 0.12 in 0.0 iph
04/26/2017 12:31 Wet 46.0F - 44F 32F 15 0% 0.00 in - 0% 0 mhos 4 - None None 0.12 in 0.0 iph
04/26/2017 12:30 Wet 45.9F - 44F 32F 10 0% 0.00 in - 0% 0 mhos 5 - Yes Slight 0.12 in 0.0 iph
04/26/2017 12:21 Wet 45.9F - 44F 32F 5 0% 0.00 in - 0% 0 mhos 5 - None None 0.12 in 0.0 iph
04/26/2017 12:15 Wet 44.8F - 44F 32F 10 0% 0.10 in - 0% 0 mhos 3 - Yes Moderate 0.12 in 0.0 iph
04/26/2017 12:11 Wet 44.8F - 44F 32F 15 0% 0.00 in - 0% 0 mhos 16 - Yes Moderate 0.12 in 0.0 iph
04/26/2017 12:01 Wet 45.1F - 44F 32F 10 0% 0.00 in - 0% 0 mhos 5 - Yes Moderate 0.12 in 0.0 iph
04/26/2017 12:00 Wet 45.0F - 44F 32F 5 0% 0.00 in - 0% 0 mhos 3 - Yes Moderate 0.14 in 0.0 iph
04/26/2017 11:51 Wet 45.1F - 44F 32F 15 0% 0.00 in - 0% 0 mhos 10 - Yes Moderate 0.14 in 0.0 iph
04/26/2017 11:45 Wet 45.3F - 44F 32F 15 0% 0.00 in - 0% 0 mhos 8 - Yes Moderate 0.14 in 0.0 iph
Date/Time
(MDT)
Sf
Temp Chem Water Layer Surface Precipitation
Sfc Pvt Sub Frz Factor Pct Dpth DpthThk IcePct Cond Salin FI Type Intens Accum Rate
04/26/2017 11:41 Wet 45.0F - 44F 32F 10 0% 0.00 in - 0% 0 mhos 5 - Yes Moderate 0.14 in 0.0 iph
04/26/2017 11:31 Wet 44.6F - 44F 32F 5 0% 0.00 in - 0% 0 mhos 11 - Yes Moderate 0.14 in 0.0 iph
04/26/2017 11:30 Wet 45.0F - 44F 32F 10 0% 0.00 in - 0% 0 mhos 10 - Yes Slight 0.14 in 0.0 iph
04/26/2017 11:21 Wet 44.8F - 44F 32F 5 0% 0.00 in - 0% 0 mhos 7 - Yes Slight 0.14 in 0.0 iph
04/26/2017 11:15 Wet 45.1F - 44F 32F 5 0% 0.00 in - 0% 0 mhos 7 - None None 0.14 in 0.0 iph
04/26/2017 11:11 Wet 44.4F - 44F 32F 5 0% 0.00 in - 0% 0 mhos 11 - None None 0.14 in 0.0 iph
04/26/2017 11:01 Wet 45.5F - 44F 32F 10 0% 0.00 in - 0% 0 mhos 7 - None None 0.14 in 0.0 iph
04/26/2017 11:00 Wet 45.1F - 44F 32F 15 0% 0.00 in - 0% 0 mhos 7 - None None 0.14 in 0.0 iph
04/26/2017 10:51 Wet 45.0F - 44F 32F 5 0% 0.00 in - 0% 0 mhos 12 - None None 0.14 in 0.0 iph
04/26/2017 10:45 Wet 44.8F - 44F 32F 5 0% 0.00 in - 0% 0 mhos 10 - None None 0.14 in 0.0 iph
04/26/2017 10:41 Wet 44.6F - 44F 32F 5 0% 0.00 in - 0% 0 mhos 8 - None None 0.14 in 0.0 iph
04/26/2017 10:31 Wet 44.8F - 44F 32F 10 0% 0.00 in - 0% 0 mhos 9 - Yes Moderate 0.14 in 0.0 iph
04/26/2017 10:30 Wet 45.1F - 44F 32F 5 0% 0.00 in - 0% 0 mhos 12 - Yes Moderate 0.14 in 0.0 iph
04/26/2017 10:21 Wet 45.9F - 44F 32F 10 0% 0.00 in - 0% 0 mhos 13 - None None 0.14 in 0.0 iph
04/26/2017 10:15 Wet 46.2F - 44F 32F 5 0% 0.00 in - 0% 0 mhos 13 - None None 0.14 in 0.0 iph
Date/Time
(MDT)
Sf
Temp Chem Water Layer Surface Precipitation
Sfc Pvt Sub Frz Factor Pct Dpth DpthThk IcePct Cond Salin FI Type Intens Accum Rate
04/26/2017 10:11 Wet 46.6F - 44F 32F 10 0% 0.00 in - 0% 0 mhos 12 - None None 0.14 in 0.0 iph
04/26/2017 10:01 Wet 46.4F - 44F 32F 10 0% 0.00 in - 0% 0 mhos 11 - None None 0.14 in 0.0 iph
04/26/2017 10:00 Wet 46.2F - 44F 32F 10 0% 0.00 in - 0% 0 mhos 11 - None None 0.14 in 0.0 iph
04/26/2017 09:51 Wet 46.9F - 44F 32F 5 0% 0.00 in - 0% 0 mhos 9 - None None 0.14 in 0.0 iph
04/26/2017 09:45 Wet 47.7F - 44F 32F 5 0% 0.00 in - 0% 0 mhos 5 - None None 0.14 in 0.0 iph
04/26/2017 09:41 Wet 47.1F - 44F 32F 5 0% 0.00 in - 0% 0 mhos 6 - None None 0.14 in 0.0 iph
04/26/2017 09:31 Wet 46.4F - 44F 32F 5 0% 0.00 in - 0% 0 mhos 6 - None None 0.14 in 0.0 iph
04/26/2017 09:30 Wet 46.6F - 44F 32F 10 0% 0.00 in - 0% 0 mhos 6 - None None 0.14 in 0.0 iph
04/26/2017 09:20 Wet 44.4F - 44F 32F 5 0% 0.00 in - 0% 0 mhos 6 - Yes Slight 0.14 in 0.0 iph
04/26/2017 09:15 Wet 43.3F - 44F 32F 10 0% 0.00 in - 0% 0 mhos 4 - Yes Slight 0.14 in 0.0 iph
04/26/2017 09:10 Wet 42.6F - 44F 32F 5 0% 0.10 in - 0% 0 mhos 3 - Yes Moderate 0.14 in 0.0 iph
04/26/2017 09:00 Wet 41.7F - 44F 32F 5 0% 0.00 in - 0% 0 mhos 6 - Yes Moderate 0.14 in 0.0 iph
04/26/2017 09:00 Wet 41.7F - 45F 32F 5 0% 0.00 in - 0% 0 mhos 6 - Yes Moderate 0.15 in 0.0 iph
Change End Date:

Copyright © 1998-2015 Vaisala, Inc.
All Rights Reserved
Send comments about the data to:
SCAN Web ® is a registered trademark of Vaisala, Inc.
SCAN Web Version 6.0